RDBK12 YBOK-YBOK

Flight info

Callsign RDBK12
Flight time 0h 4m
Altitude 1000
Route DCT YBOK YBOK DCT
Aircraft H60/M-SDFGRY/LB1

Departure

Time 2026-05-06 12:12
Airport Oakey Army Aviation Centre (YBOK)

Arrival

Time 2026-05-06 12:17
Airport Oakey Army Aviation Centre (YBOK)
Time Latitude Longitude Altitude Speed Heading
2026-05-06 12:07 -27.41344 151.73699 1357 ft 0 kts 228°
2026-05-06 12:08 -27.41345 151.73700 1357 ft 0 kts 228°
2026-05-06 12:08 -27.41344 151.73700 1357 ft 0 kts 228°
2026-05-06 12:08 -27.41344 151.73699 1357 ft 1 kts 228°
2026-05-06 12:09 -27.41344 151.73695 1396 ft 5 kts 233°
2026-05-06 12:09 -27.41242 151.73531 1463 ft 55 kts
2026-05-06 12:10 -27.40905 151.73828 1516 ft 85 kts 55°
2026-05-06 12:10 -27.40400 151.73745 1504 ft 84 kts 348°
2026-05-06 12:10 -27.40168 151.73613 1390 ft 11 kts 147°
2026-05-06 12:10 -27.40253 151.73692 1352 ft 14 kts 147°
2026-05-06 12:11 -27.40315 151.73738 1335 ft 0 kts 144°
2026-05-06 12:11 -27.40332 151.73747 1342 ft 3 kts 135°
2026-05-06 12:11 -27.40388 151.73797 1341 ft 26 kts 147°
2026-05-06 12:11 -27.40680 151.74029 1354 ft 76 kts 153°
2026-05-06 12:12 -27.41224 151.74456 1504 ft 108 kts 152°
2026-05-06 12:12 -27.41837 151.74955 1832 ft 104 kts 149°
2026-05-06 12:12 -27.42351 151.75511 2247 ft 106 kts 122°
2026-05-06 12:12 -27.42537 151.76328 2278 ft 111 kts 100°
2026-05-06 12:13 -27.42645 151.77255 2144 ft 125 kts 99°
2026-05-06 12:13 -27.42757 151.78196 2450 ft 115 kts 99°
2026-05-06 12:13 -27.42650 151.79045 2598 ft 113 kts 58°
2026-05-06 12:13 -27.41900 151.79415 2367 ft 137 kts 355°
2026-05-06 12:14 -27.41226 151.78675 2324 ft 143 kts 297°
2026-05-06 12:14 -27.40959 151.77672 2253 ft 123 kts 275°
2026-05-06 12:14 -27.40907 151.76774 2245 ft 110 kts 274°
2026-05-06 12:14 -27.40644 151.75999 2210 ft 107 kts 310°
2026-05-06 12:15 -27.40093 151.75483 2240 ft 102 kts 327°
2026-05-06 12:15 -27.39516 151.75002 2208 ft 106 kts 328°
2026-05-06 12:15 -27.38932 151.74509 2169 ft 103 kts 318°
2026-05-06 12:15 -27.38711 151.73779 2126 ft 102 kts 257°
2026-05-06 12:16 -27.39177 151.73259 1935 ft 102 kts 179°
2026-05-06 12:16 -27.39781 151.73392 1764 ft 77 kts 153°
2026-05-06 12:16 -27.40198 151.73636 1639 ft 59 kts 148°
2026-05-06 12:16 -27.40603 151.73737 1533 ft 52 kts 168°
2026-05-06 12:17 -27.40925 151.73715 1459 ft 38 kts 173°
2026-05-06 12:17 -27.41100 151.73725 1385 ft 28 kts 168°
2026-05-06 12:17 -27.41261 151.73659 1348 ft 12 kts 146°
2026-05-06 12:17 -27.41297 151.73652 1345 ft 4 kts 115°
2026-05-06 12:18 -27.41319 151.73666 1342 ft 3 kts 106°
2026-05-06 12:18 -27.41317 151.73668 1341 ft 0 kts 104°
2026-05-06 12:18 -27.41347 151.73682 1360 ft 13 kts 50°
2026-05-06 12:18 -27.41309 151.73719 1347 ft 14 kts 187°
2026-05-06 12:19 -27.41316 151.73680 1343 ft 0 kts 107°
2026-05-06 12:23 -27.41314 151.73676 1341 ft 4 kts 108°
2026-05-06 12:23 -27.41315 151.73683 1349 ft 1 kts 108°
2026-05-06 12:23 -27.41313 151.73686 1344 ft 0 kts 108°
2026-05-06 12:27 -27.41318 151.73683 1349 ft 6 kts 109°
2026-05-06 12:27 -27.41307 151.73663 1343 ft 0 kts 111°
2026-05-06 12:28 -27.41297 151.73616 1365 ft 9 kts 118°
2026-05-06 12:28 -27.41287 151.73625 1375 ft 1 kts 118°
2026-05-06 12:29 -27.41292 151.73636 1362 ft 2 kts 118°
2026-05-06 12:29 -27.41298 151.73647 1359 ft 2 kts 118°
2026-05-06 12:29 -27.41297 151.73644 1348 ft 1 kts 118°
2026-05-06 12:29 -27.41295 151.73641 1349 ft 1 kts 118°
2026-05-06 12:30 -27.41294 151.73639 1349 ft 1 kts 118°
2026-05-06 12:30 -27.41292 151.73635 1349 ft 1 kts 119°
2026-05-06 12:30 -27.41290 151.73631 1349 ft 1 kts 119°
2026-05-06 12:30 -27.41288 151.73627 1346 ft 3 kts 119°
2026-05-06 12:31 -27.41299 151.73634 1345 ft 3 kts 119°
2026-05-06 12:31 -27.41302 151.73639 1343 ft 0 kts 119°
2026-05-06 12:32 -27.41308 151.73649 1348 ft 1 kts 119°
2026-05-06 12:32 -27.41314 151.73652 1349 ft 0 kts 119°
2026-05-06 12:32 -27.41314 151.73654 1343 ft 0 kts 119°
2026-05-06 12:33 -27.41318 151.73660 1346 ft 2 kts 120°
2026-05-06 12:33 -27.41324 151.73664 1344 ft 1 kts 120°
2026-05-06 12:34 -27.41326 151.73667 1343 ft 0 kts 121°
2026-05-06 12:34 -27.41323 151.73664 1344 ft 0 kts 121°
2026-05-06 12:34 -27.41323 151.73665 1344 ft 0 kts 121°
2026-05-06 12:34 -27.41325 151.73665 1343 ft 1 kts 121°
2026-05-06 12:35 -27.41323 151.73667 1339 ft 0 kts 120°